Regional Weather Roundup
Issued by NWS Little Rock, AR

Home | Current Version | Previous Version | Text Only | Print | Product List | Glossary Off
Versions: 1 2 3 4 5 6 7 8 9 10 11 12 13 14 15 16 17 18 19 20 21 22 23 24 25 26 27

000
ASUS44 KLZK 260205
RWRLZK

WEATHER ROUNDUP FOR ARKANSAS
NATIONAL WEATHER SERVICE LITTLE ROCK AR
900 PM CDT WED MAY 25 2016

NOTE: "FAIR" INDICATES FEW OR NO CLOUDS BELOW 12,000 FEET WITH NO
SIGNIFICANT WEATHER AND/OR OBSTRUCTIONS TO VISIBILITY.

ARZ001-003-010-029-260300-
NORTHWEST ARKANSAS

CITY           SKY/WX    TMP DP  RH WIND       PRES   REMARKS
FAYETTEVILLE   CLEAR     74  72  93 SE7       29.95F
FORT SMITH     CLEAR     82  71  69 CALM      29.92S HX  86
HARRISON       CLOUDY    72  68  87 SE9       30.00S
BENTONVILLE    CLEAR     75  68  78 S7        29.95S
ROGERS           N/A     75  71  87 SE9       29.96S
SILOAM SPGS    CLEAR     75  64  69 S10       29.94F
HIGHFILL       CLEAR     75  72  90 S9        29.94S
SPRINGDALE     CLEAR     75  72  88 SE8       29.97F
$$

ARZ004-005-016-260300-
NORTH CENTRAL ARKANSAS

CITY           SKY/WX    TMP DP  RH WIND       PRES   REMARKS
BATESVILLE     MOCLDY    72  66  83 E7        30.04R
FLIPPIN        CLOUDY   N/A N/A N/A SE5       29.97S
MTN HOME       CLOUDY    71  67  87 SE7       30.00S
$$

ARZ040-041-260300-
WEST CENTRAL ARKANSAS

CITY           SKY/WX    TMP DP  RH WIND       PRES   REMARKS
MENA           PTCLDY    82  77  83 CALM      29.99R HX  91
MOUNT IDA      PTCLDY    80  72  76 VRB3      29.97R
$$

ARZ009-017-025-026-028-260300-
NORTHEAST ARKANSAS

CITY           SKY/WX    TMP DP  RH WIND       PRES   REMARKS
CORNING          N/A     72  72 100 S6        30.03F
JONESBORO      MOCLDY    72  68  87 SE7       30.04R
NEWPORT        MOCLDY    73  73 100 SE7       30.04F
WALNUT RIDGE   CLEAR     72  66  83 SE3       30.03S
BLYTHEVILLE    MOCLDY    69  66  90 S9        30.06F
$$

ARZ022-023-033-042-044-260300-
CENTRAL ARKANSAS

CITY           SKY/WX    TMP DP  RH WIND       PRES   REMARKS
LITTLE ROCK    MOCLDY    80  73  79 SE8       30.00R
N LITTLE ROCK    N/A     79  74  83 S6        29.99R
JACKSONVILLE   MOCLDY    80  73  79 SE3       30.00R HX  85
SEARCY         CLOUDY    75  72  88 E5        30.04R
HOT SPRINGS    CLEAR     81  73  76 SE3       29.99R HX  86
RUSSELLVILLE   CLEAR     77  74  90 VRB5      29.97R
CLINTON        CLOUDY    73  70  88 CALM      30.02R
$$

ARZ036-260300-
EAST ARKANSAS

CITY           SKY/WX    TMP DP  RH WIND       PRES   REMARKS
WEST MEMPHIS   MOCLDY    72  68  87 SE13      30.05S
$$

ARZ050-053-066-070-073-260300-
SOUTHWEST ARKANSAS

CITY           SKY/WX    TMP DP  RH WIND       PRES   REMARKS
ARKADELPHIA    MOCLDY    80  80 100 S5        29.99R HX  87
CAMDEN         PTCLDY    81  73  78 S8        29.99R HX  85
TEXARKANA      PTCLDY    81  74  79 S7        29.97R HX  86
EL DORADO      PTCLDY    78  72  81 SE3       30.01R
DE QUEEN       PTCLDY    82  75  79 S6        29.93R HX  89
$$

ARZ056-057-069-260300-
SOUTHEAST ARKANSAS

CITY           SKY/WX    TMP DP  RH WIND       PRES   REMARKS
PINE BLUFF     CLEAR     79  73  82 SE8       30.01S
STUTTGART      PTCLDY    82  70  65 SE8       30.03R HX  86
MONTICELLO     CLEAR     78  73  84 SE3       30.03R

$$






USA.gov is the U.S. government's official web portal to all federal, state and local government web resources and services.